Satellite: SO-50
Catalog number: 27607
Epoch time:      05131.73204021
Element set:    0717
Inclination:      064.5592 deg
RA of node:       251.6114 deg
Eccentricity:    0.0084102
Arg of perigee:   246.3353 deg
Mean anomaly:     112.8905 deg
Mean motion:   14.70951314 rev/day
Decay rate:       6.31e-06 rev/day^2
Epoch rev:           12837
Checksum:              265

Satellite: AO-51
Catalog number: 28375
Epoch time:      05131.72951451
Element set:     247
Inclination:      098.2137 deg
RA of node:       195.7271 deg
Eccentricity:    0.0084083
Arg of perigee:   341.9186 deg
Mean anomaly:     017.9017 deg
Mean motion:   14.40454145 rev/day
Decay rate:       1.42e-06 rev/day^2
Epoch rev:            4536
Checksum:              297

/EX
SB KEPS @ AMSAT  $ORB05132.W
Orbital Elements  05132.WEATHER

HR AMSAT ORBITAL ELEMENTS FOR WEATHER SATELLITES
FROM WA5QGD FORT WORTH,TX May 12, 2005
SEND SUBSCRIBE/UNSUBSCRIBE TO majordomo@amsat.org ONLY
BID: ORB05132.W
TO ALL RADIO AMATEURS BT

Satellite: NOAA-10
Catalog number: 16969
Epoch time:      05132.22421809
Element set:     726
Inclination:      098.7631 deg
RA of node:       137.9013 deg
Eccentricity:    0.0011730
Arg of perigee:   234.7535 deg
Mean anomaly:     125.2544 deg
Mean motion:   14.27253479 rev/day
Decay rate:        3.3e-07 rev/day^2
Epoch rev:           96996
Checksum:              308

Satellite: NOAA-11
Catalog number: 19531
Epoch time:      05132.29655184
Element set:     579
Inclination:      098.8438 deg
RA of node:       219.6532 deg
Eccentricity:    0.0012276
Arg of perigee:   053.3179 deg
Mean anomaly:     306.9133 deg
Mean motion:   14.14755427 rev/day
Decay rate:       2.73e-06 rev/day^2
Epoch rev:           85785
Checksum:              327

Satellite: NOAA-12
Catalog number: 21263
Epoch time:      05132.45097640
Element set:      70
Inclination:      098.7006 deg
RA of node:       123.1317 deg
Eccentricity:    0.0013017
Arg of perigee:   168.6958 deg
Mean anomaly:     191.4534 deg
Mean motion:   14.25461654 rev/day
Decay rate:       -2.7e-07 rev/day^2
Epoch rev:           72715
Checksum:              281

Satellite: MET-3/5
Catalog number: 21655
Epoch time:      05131.86434943
Element set:     813
Inclination:      082.5589 deg
RA of node:       184.3217 deg
Eccentricity:    0.0012611
Arg of perigee:   329.9038 deg
Mean anomaly:     030.1357 deg
Mean motion:   13.17002120 rev/day
Decay rate:        5.1e-07 rev/day^2
Epoch rev:           66053
Checksum:              271

Satellite: MET-2/21
Catalog number: 22782
Epoch time:      05131.67814653
Element set:    0200
Inclination:      082.5466 deg
RA of node:       289.9405 deg
Eccentricity:    0.0021405
Arg of perigee:   223.4462 deg
Mean anomaly:     136.4997 deg
Mean motion:   13.83587935 rev/day
Decay rate:        2.3e-07 rev/day^2
Epoch rev:           59052
Checksum:              309

Satellite: OKEAN-4
Catalog number: 23317
Epoch time:      05132.77262923
Element set:     623
Inclination:      082.5376 deg
RA of node:       290.4016 deg
Eccentricity:    0.0020743
Arg of perigee:   252.6165 deg
Mean anomaly:     107.2762 deg
Mean motion:   14.82137823 rev/day
Decay rate:       6.68e-06 rev/day^2
Epoch rev:           57066
Checksum:              294

Satellite: NOAA-14
Catalog number: 23455
Epoch time:      05132.33161012
Element set:     593
Inclination:      099.0917 deg
RA of node:       180.0716 deg
Eccentricity:    0.0010241
Arg of perigee:   102.9507 deg
Mean anomaly:     257.2816 deg
Mean motion:   14.13562576 rev/day
Decay rate:       2.10e-06 rev/day^2
Epoch rev:           53443
Checksum:              262

Satellite: SICH-1
Catalog number: 23657
Epoch time:      05132.83566221
Element set:     428
Inclination:      082.5296 deg
RA of node:       071.1912 deg
Eccentricity:    0.0022526
Arg of perigee:   237.7313 deg
Mean anomaly:     122.1736 deg
Mean motion:   14.81154351 rev/day
Decay rate:       6.55e-06 rev/day^2
Epoch rev:           52272
Checksum:              277

Satellite: NOAA-15
Catalog number: 25338
Epoch time:      05132.24800853
Element set:      35
Inclination:      098.5136 deg
RA of node:       141.6774 deg
Eccentricity:    0.0011753
Arg of perigee:   103.1265 deg
Mean anomaly:     257.1227 deg
Mean motion:   14.24507179 rev/day
Decay rate:       1.02e-06 rev/day^2
Epoch rev:           36363
Checksum:              273

Satellite: RESURS
Catalog number: 25394
Epoch time:      05132.51894620
Element set:      85
Inclination:      098.5389 deg
RA of node:       202.7425 deg
Eccentricity:    0.0000555
Arg of perigee:   237.6983 deg
Mean anomaly:     122.4106 deg
Mean motion:   14.24062930 rev/day
Decay rate:       -4.3e-07 rev/day^2
Epoch rev:           35537
Checksum:              287

Satellite: FENGYUN1
Catalog number: 25730
Epoch time:      05132.41637000
Element set:     411
Inclination:      098.6062 deg
RA of node:       135.6327 deg
Eccentricity:    0.0014101
Arg of perigee:   200.0327 deg
Mean anomaly:     160.0305 deg
Mean motion:   14.11794778 rev/day
Decay rate:       2.85e-06 rev/day^2
Epoch rev:           30946
Checksum:              245

Satellite: OKEAN-0
Catalog number: 25860
Epoch time:      05132.78089972
Element set:     431
Inclination:      097.7598 deg
RA of node:       160.2297 deg
Eccentricity:    0.0001093
Arg of perigee:   057.4651 deg
Mean anomaly:     302.6663 deg
Mean motion:   14.73242966 rev/day
Decay rate:       2.11e-06 rev/day^2
Epoch rev:           31279
Checksum:              309

